Location: Krasnoyarskiy Pitomnik
(51.1333°N, 71.6167°E)
Time: 15:04:28
(UTC+00:00)

Cosmos 2322 Rocket - Pass Details

Date: 22 October 2021
Orbit: 832 x 851 km, 71.0° (Epoch: 26 November)

Event Time Altitude Azimuth Distance (km) Brightness Sun altitude
Exits shadow 22:23:41 42° 16° (NNE) 1,187 3.1 -32.5°
Maximum altitude 22:24:52 49° 52° (NE) 1,085 3.0 -32.3°
Drops below altitude 10° 22:30:21 10° 127° (SE) 2,466 4.9 -31.5°
Sets 22:32:53 0° 133° (SE) 3,400 5.6 -31.2°
